Regional Weather Roundup
Issued by NWS Charleston, SC

Current Version | Previous Version | Graphics & Text | Print | Product List | Glossary On
Versions: 1 2 3 4 5 6 7 8 9 10 11 12 13 14 15 16 17 18 19 20 21 22 23 24 25 26 27 28 29 30 31 32 33 34 35 36 37 38 39 40 41 42 43 44 45 46 47 48 49 50
000
ASUS42 KCHS 270110
RWRCHS
REGIONAL WEATHER ROUNDUP
NATIONAL WEATHER SERVICE CHARLESTON SC
800 PM EST WED NOV 26 2014

NOTE: "FAIR" INDICATES FEW OR NO CLOUDS BELOW 12,000 FEET WITH NO
SIGNIFICANT WEATHER AND/OR OBSTRUCTIONS TO VISIBILITY.

NOT ALL STATIONS ARE QUALITY CONTROLLED BY THE NATIONAL
WEATHER SERVICE. USE DATA WITH CAUTION...ESPECIALLY
DEWPOINT OBSERVATIONS.

SCZ027-030-031-034>040-042>050-270200-
...SOUTHEAST SOUTH CAROLINA...

CITY           SKY/WX    TMP DP  RH WIND       PRES   REMARKS
N CHARLESTON   CLEAR     47  45  93 SW6       30.09S
WATERFRONT PRK   N/A     52 N/A N/A SW3         N/A
MOUNT PLEASANT NOT AVBL
JOHNS ISLAND   CLEAR     48  48 100 CALM      30.10S
PINOPOLIS        N/A     52  46  82 S2        30.01R
MONCKS CORNER  FAIR      46  46 100 CALM      30.08F
SUMMERVILLE    FAIR      45  45 100 CALM      30.09F
BEAUFORT MCAS  CLEAR     47  45  93 S3        30.10F
BEAUFORT ARPT  FAIR      48  48 100 SW5       30.10S
HILTON HEAD IS CLEAR     46  46 100 S3        30.12S
WALTERBORO     CLEAR     48 N/A N/A SW5       30.10R
ALLENDALE      FAIR      46  43  87 CALM      30.08S

...SOUTHERN MIDLANDS AND PEE DEE...

CITY           SKY/WX    TMP DP  RH WIND       PRES   REMARKS
GEORGETOWN     NOT AVBL
KINGSTREE      NOT AVBL
ORANGEBURG     CLEAR     46  43  89 SW5       30.07S
BARNWELL         N/A     43  41  93 W3        30.09R
AIKEN          FAIR      45  36  70 SW6       30.10S
MANNING        NOT AVBL
COLUMBIA       CLEAR     45  42  89 CALM      30.04S
SUMTER         CLEAR     44  42  93 CALM      30.04S
FLORENCE       FOG       43  42  97 CALM      30.07S VSB 1
MYRTLE BEACH   CLEAR     46  45  93 W6        30.09R
N MYRTLE BEACH CLEAR     46  44  93 CALM      30.08R

$$

GAZ063-065-086>088-099>101-113>116-118-119-134>141-150-270200-
...SOUTHEAST GEORGIA...

CITY           SKY/WX    TMP DP  RH WIND       PRES   REMARKS
SAVANNAH ARPT  CLEAR     49  39  68 SW6       30.12R
HUNTER AAF     CLEAR     47  41  80 W3        30.11R
FORT STEWART   CLEAR     45  42  89 CALM      30.12R
STATESBORO     NOT AVBL
SYLVANIA       CLEAR     46  42  88 CALM      30.11S
CLAXTON        FAIR      45  36  70 CALM      30.13R

...CSRA...CENTRAL AND FAR SOUTHEAST GEORGIA...

CITY           SKY/WX    TMP DP  RH WIND       PRES   REMARKS
THOMSON        CLEAR     45  37  73 CALM      30.13S
AUGUSTA-BUSH   CLEAR     44  34  67 W7        30.10R
AUGUSTA-DANIEL CLEAR     49  30  48 VRB3      30.10R
SWAINSBORO     FAIR      46  37  71 W3        30.13R
VIDALIA        CLEAR     46  36  66 W3        30.14R
HAZLEHURST     FAIR      46  42  86 CALM      30.14R
ALMA           CLEAR     43  38  82 CALM      30.16R
WAYCROSS       CLEAR     50  40  69 W6        30.16R
JESUP          FAIR      45  43  93 CALM      30.15R
BAXLEY         FAIR      45  43  93 CALM      30.15R
BRUNSWICK      CLEAR     45  41  87 CALM      30.16R
SAINT SIMONS   CLEAR     49  42  77 SW3       30.15S

$$

SCZ027-028-034-036>038-045-046-048>050-GAZ119-141-270200-
...LAKE AND SUPPLEMENTAL COASTAL OBSERVATIONS...

STATION/POSITION TIME  TEMP    WIND        PRES    WAVE   SWELL
                       AIR SEA DIR/SP/G            HT/PER HT/PER/DIR
                 (UTC) (F)     (DEG/KT/KT) (MB)    (FT/S) (FT/S/D)
UPR LAKE MARION  NOT AVBL
WINYAH BAY       0000   48     290/  2     1018.0S
LAKE MURRAY      0000   54     240/  9/ 12 1016.9R
ACE BASIN NERRS  0000   48        CALM     1019.0R
FORT PULASKI     0100   52     210/  5/  6 1020.0R
SAPELO ISLAND    NOT AVBL

$$

ANZ835-935-AMZ111-154-330-350-352-354-370-450-454-472-270200-
...C-MAN AND BUOY OBSERVATIONS...

STATION/POSITION TIME  TEMP    WIND        PRES    WAVE   SWELL
                       AIR SEA DIR/SP/G            HT/PER HT/PER/DIR
                 (UTC) (F)     (DEG/KT/KT) (MB)    (FT/S) (FT/S/D)
FOLLY BEACH CMAN 0000   52     240/  5/  6 1019.5R
BUOY 41004       0100   60 74  280/ 16/ 19 1018.6R   4/ 5   2/ 9
BUOY 41008       0100   60 64  270/ 14/ 17 1020.3R   2/ 9   2/110/ 9
CAPERS NEARSHORE 0000   54     280/  4/  6   N/A
FRIPP NEARSHORE  NOT AVBL


STATION/POSITION TIME  TEMP    WIND        PRES    WAVE   SWELL
                       AIR SEA DIR/SP/G            HT/PER HT/PER/DIR
                 (UTC) (F)     (DEG/KT/KT) (MB)    (FT/S) (FT/S/D)
5E ST. MARYS GA  0100      63                N/A     2/ 9
FRYING PAN BUOY  0100   55 71  300/ 19/ 27 1018.3R   6/ 6   2/150/ 9
BUOY 41025       0100   50     290/ 19/ 25 1014.7R  10/ 9   5/160/ 9
CAPE LOOKOUT NC  0000   49     290/ 17/ 22 1015.7R
BUOY 41002       NOT AVBL
BUOY 41010       0100   69 77  330/ 19/ 23 1019.7R   9/ 8   5/310/15
ST AUGUSTINE FL  0100   53     280/  6/  6 1022.4R


$$


USA.gov is the U.S. government's official web portal to all federal, state and local government web resources and services.